TimeCDT,TemperatureF,Dew PointF,Humidity,Sea Level PressureIn,VisibilityMPH,Wind Direction,Wind SpeedMPH,Gust SpeedMPH,PrecipitationIn,Events,Conditions,WindDirDegrees,DateUTC
12:53 AM,84.0,61.0,46,29.91,10.0,South,11.5,20.7,N/A,,Clear,170,2013-07-30 05:53:00
1:53 AM,84.0,62.1,47,29.90,10.0,South,11.5,21.9,N/A,,Clear,180,2013-07-30 06:53:00
2:53 AM,82.0,64.9,56,29.92,10.0,South,10.4,25.3,N/A,,Clear,180,2013-07-30 07:53:00
3:53 AM,80.1,66.9,64,29.92,10.0,South,9.2,-,N/A,,Clear,180,2013-07-30 08:53:00
4:53 AM,79.0,68.0,69,29.94,10.0,South,8.1,-,N/A,,Clear,180,2013-07-30 09:53:00
5:53 AM,79.0,69.1,72,29.98,10.0,South,5.8,-,N/A,,Clear,190,2013-07-30 10:53:00
6:53 AM,78.1,69.1,74,30.02,10.0,South,3.5,-,N/A,,Clear,190,2013-07-30 11:53:00
7:53 AM,79.0,70.0,74,30.03,10.0,SSE,6.9,-,N/A,,Partly Cloudy,150,2013-07-30 12:53:00
8:53 AM,80.1,70.0,71,30.02,10.0,South,10.4,18.4,N/A,,Partly Cloudy,180,2013-07-30 13:53:00
9:53 AM,82.0,70.0,67,30.00,10.0,South,9.2,18.4,N/A,,Partly Cloudy,190,2013-07-30 14:53:00
10:53 AM,86.0,70.0,59,29.98,10.0,South,13.8,26.5,N/A,,Clear,190,2013-07-30 15:53:00
11:53 AM,88.0,70.0,55,29.98,10.0,South,13.8,20.7,N/A,,Clear,190,2013-07-30 16:53:00
12:53 PM,91.9,69.1,47,29.97,10.0,SSW,12.7,19.6,N/A,,Clear,200,2013-07-30 17:53:00
1:53 PM,95.0,69.1,43,29.96,10.0,SSW,9.2,17.3,N/A,,Clear,200,2013-07-30 18:53:00
2:53 PM,95.0,68.0,41,29.94,10.0,South,11.5,17.3,N/A,,Clear,170,2013-07-30 19:53:00
3:53 PM,97.0,68.0,39,29.93,10.0,SSW,6.9,16.1,N/A,,Clear,210,2013-07-30 20:53:00
4:53 PM,99.0,66.9,35,29.91,10.0,SSW,11.5,17.3,N/A,,Clear,210,2013-07-30 21:53:00
5:53 PM,98.1,64.9,34,29.90,10.0,SSW,6.9,-,N/A,,Partly Cloudy,210,2013-07-30 22:53:00
6:53 PM,97.0,64.9,35,29.89,10.0,SSW,8.1,-,N/A,,Partly Cloudy,210,2013-07-30 23:53:00
7:53 PM,95.0,66.0,38,29.90,10.0,South,6.9,16.1,N/A,,Partly Cloudy,170,2013-07-31 00:53:00
8:53 PM,91.9,63.0,38,29.92,10.0,South,8.1,-,N/A,,Clear,170,2013-07-31 01:53:00
9:53 PM,89.1,63.0,42,29.93,10.0,South,3.5,-,N/A,,Clear,180,2013-07-31 02:53:00
10:53 PM,87.1,64.0,46,29.93,10.0,South,6.9,-,N/A,,Clear,180,2013-07-31 03:53:00
11:53 PM,84.9,64.0,49,29.94,10.0,South,4.6,-,N/A,,Clear,180,2013-07-31 04:53:00